TimeCST,TemperatureF,Dew PointF,Humidity,Sea Level PressureIn,VisibilityMPH,Wind Direction,Wind SpeedMPH,Gust SpeedMPH,PrecipitationIn,Events,Conditions,WindDirDegrees,DateUTC
12:15 AM,74.3,59.5,60,29.94,10.0,SE,9.2,-,N/A,,Overcast,130,2013-11-05 06:15:00
12:55 AM,73.6,59.9,62,29.94,10.0,East,8.1,-,N/A,,Overcast,100,2013-11-05 06:55:00
1:15 AM,73.4,59.9,63,29.94,10.0,ESE,8.1,-,N/A,,Overcast,120,2013-11-05 07:15:00
1:35 AM,73.4,59.7,62,29.93,10.0,ESE,8.1,-,N/A,,Overcast,120,2013-11-05 07:35:00
1:55 AM,73.6,59.5,61,29.92,10.0,ESE,6.9,-,N/A,,Overcast,120,2013-11-05 07:55:00
2:15 AM,73.4,59.5,62,29.92,10.0,ESE,6.9,-,N/A,,Overcast,120,2013-11-05 08:15:00
2:35 AM,73.4,59.5,62,29.91,10.0,SE,8.1,-,N/A,,Overcast,130,2013-11-05 08:35:00
2:55 AM,72.5,59.9,64,29.91,10.0,SE,6.9,-,N/A,,Scattered Clouds,130,2013-11-05 08:55:00
3:15 AM,71.6,60.4,68,29.91,10.0,SE,6.9,-,N/A,,Clear,130,2013-11-05 09:15:00
3:35 AM,71.1,60.4,69,29.91,10.0,SE,5.8,-,N/A,,Clear,130,2013-11-05 09:35:00
3:55 AM,70.7,60.8,71,29.91,10.0,SE,4.6,-,N/A,,Scattered Clouds,130,2013-11-05 09:55:00
4:15 AM,70.0,60.8,73,29.91,10.0,ESE,4.6,-,N/A,,Mostly Cloudy,120,2013-11-05 10:15:00
4:35 AM,69.6,60.8,73,29.90,10.0,SE,3.5,-,N/A,,Scattered Clouds,130,2013-11-05 10:35:00
4:55 AM,68.9,61.0,76,29.90,10.0,SE,3.5,-,N/A,,Clear,130,2013-11-05 10:55:00
5:15 AM,69.1,61.3,76,29.91,10.0,SE,4.6,-,N/A,,Clear,140,2013-11-05 11:15:00
5:35 AM,69.3,61.7,77,29.90,10.0,SE,4.6,-,N/A,,Clear,130,2013-11-05 11:35:00
5:55 AM,68.9,61.5,77,29.91,10.0,SE,3.5,-,N/A,,Clear,130,2013-11-05 11:55:00
6:35 AM,67.5,61.2,80,29.91,10.0,Calm,Calm,-,N/A,,Scattered Clouds,0,2013-11-05 12:35:00
6:55 AM,67.8,61.7,81,29.91,10.0,Calm,Calm,-,N/A,,Overcast,0,2013-11-05 12:55:00
7:15 AM,68.9,62.1,79,29.92,10.0,Calm,Calm,-,N/A,,Overcast,0,2013-11-05 13:15:00
7:35 AM,70.9,62.6,75,29.92,10.0,SE,3.5,-,N/A,,Overcast,130,2013-11-05 13:35:00
7:55 AM,72.7,63.1,72,29.93,10.0,SE,5.8,-,N/A,,Overcast,140,2013-11-05 13:55:00
8:15 AM,74.1,63.5,69,29.94,10.0,SSE,6.9,-,N/A,,Overcast,150,2013-11-05 14:15:00
8:35 AM,74.8,63.7,68,29.94,10.0,SSE,9.2,-,N/A,,Overcast,160,2013-11-05 14:35:00
8:55 AM,75.6,63.9,67,29.94,10.0,SE,8.1,-,N/A,,Overcast,140,2013-11-05 14:55:00
9:15 AM,77.0,64.4,65,29.95,10.0,SSE,9.2,-,N/A,,Overcast,150,2013-11-05 15:15:00
9:35 AM,79.0,64.0,60,29.95,10.0,SSE,13.8,19.6,N/A,,Scattered Clouds,160,2013-11-05 15:35:00
9:55 AM,80.1,63.9,58,29.95,10.0,SE,8.1,20.7,N/A,,Scattered Clouds,140,2013-11-05 15:55:00
10:15 AM,79.7,62.8,56,29.95,10.0,South,10.4,16.1,N/A,,Mostly Cloudy,170,2013-11-05 16:15:00
10:35 AM,81.9,62.6,52,29.95,10.0,South,9.2,-,N/A,,Mostly Cloudy,170,2013-11-05 16:35:00
10:55 AM,83.1,62.2,49,29.94,10.0,SSE,8.1,19.6,N/A,,Mostly Cloudy,160,2013-11-05 16:55:00
11:15 AM,84.0,61.2,46,29.94,10.0,SSE,11.5,20.7,N/A,,Scattered Clouds,150,2013-11-05 17:15:00
11:35 AM,84.2,60.4,45,29.93,10.0,SSE,11.5,17.3,N/A,,Mostly Cloudy,150,2013-11-05 17:35:00
11:55 AM,85.5,60.4,43,29.92,10.0,SSE,10.4,16.1,N/A,,Overcast,160,2013-11-05 17:55:00
12:15 PM,84.6,60.8,45,29.91,10.0,South,8.1,-,N/A,,Overcast,190,2013-11-05 18:15:00
12:35 PM,86.9,59.9,40,29.90,10.0,SSE,8.1,-,N/A,,Mostly Cloudy,160,2013-11-05 18:35:00
12:55 PM,85.6,59.7,41,29.89,10.0,South,10.4,23.0,N/A,,Overcast,170,2013-11-05 18:55:00
1:15 PM,85.6,60.1,42,29.88,10.0,SE,13.8,18.4,N/A,,Overcast,140,2013-11-05 19:15:00
1:35 PM,86.0,60.6,42,29.87,10.0,SSE,12.7,-,N/A,,Overcast,160,2013-11-05 19:35:00
1:55 PM,87.1,60.6,41,29.86,10.0,SSE,10.4,21.9,N/A,,Overcast,150,2013-11-05 19:55:00
2:15 PM,86.2,60.3,41,29.86,10.0,SE,9.2,16.1,N/A,,Overcast,140,2013-11-05 20:15:00
2:35 PM,86.0,61.0,43,29.85,10.0,SSE,9.2,-,N/A,,Overcast,150,2013-11-05 20:35:00
2:55 PM,87.8,61.0,40,29.85,10.0,SSE,9.2,-,N/A,,Overcast,150,2013-11-05 20:55:00
3:15 PM,88.2,60.3,39,29.84,10.0,SSE,13.8,20.7,N/A,,Scattered Clouds,150,2013-11-05 21:15:00
3:35 PM,87.6,59.7,39,29.84,10.0,SSE,11.5,20.7,N/A,,Clear,160,2013-11-05 21:35:00
3:55 PM,88.2,59.0,37,29.83,10.0,SSE,11.5,20.7,N/A,,Clear,150,2013-11-05 21:55:00
4:15 PM,87.8,59.0,38,29.83,10.0,SE,13.8,21.9,N/A,,Clear,140,2013-11-05 22:15:00
4:35 PM,87.4,59.2,38,29.83,10.0,SSE,13.8,19.6,N/A,,Clear,150,2013-11-05 22:35:00
4:55 PM,86.5,60.6,42,29.84,10.0,SE,15.0,19.6,N/A,,Scattered Clouds,140,2013-11-05 22:55:00
5:15 PM,85.5,61.0,44,29.83,10.0,SE,10.4,21.9,N/A,,Scattered Clouds,130,2013-11-05 23:15:00
5:35 PM,84.2,61.7,47,29.84,10.0,SE,11.5,17.3,N/A,,Clear,130,2013-11-05 23:35:00
5:55 PM,83.3,62.1,49,29.85,10.0,SE,4.6,-,N/A,,Clear,130,2013-11-05 23:55:00
6:15 PM,82.6,62.1,50,29.85,10.0,ESE,5.8,-,N/A,,Clear,120,2013-11-06 00:15:00
6:35 PM,81.7,62.6,52,29.86,10.0,SE,8.1,-,N/A,,Clear,130,2013-11-06 00:35:00
6:55 PM,81.5,62.4,52,29.87,10.0,SE,5.8,-,N/A,,Scattered Clouds,130,2013-11-06 00:55:00
7:15 PM,81.7,62.4,52,29.89,10.0,SE,8.1,-,N/A,,Overcast,140,2013-11-06 01:15:00
7:35 PM,81.5,61.9,51,29.89,10.0,SE,8.1,-,N/A,,Overcast,130,2013-11-06 01:35:00
7:55 PM,81.1,62.1,52,29.90,10.0,SE,9.2,16.1,N/A,,Overcast,140,2013-11-06 01:55:00
8:15 PM,80.4,62.1,53,29.91,10.0,SE,8.1,-,N/A,,Overcast,140,2013-11-06 02:15:00
8:35 PM,79.7,63.7,58,29.91,10.0,SE,11.5,17.3,N/A,,Overcast,130,2013-11-06 02:35:00
8:55 PM,79.2,64.6,61,29.92,10.0,SE,9.2,-,N/A,,Overcast,130,2013-11-06 02:55:00
9:15 PM,79.0,64.8,62,29.93,10.0,SE,10.4,16.1,N/A,,Overcast,130,2013-11-06 03:15:00
9:35 PM,78.4,64.8,63,29.94,10.0,SE,9.2,19.6,N/A,,Overcast,130,2013-11-06 03:35:00
9:55 PM,77.9,64.6,63,29.94,10.0,SE,9.2,-,N/A,,Overcast,140,2013-11-06 03:55:00
10:15 PM,77.2,64.6,65,29.94,10.0,SE,9.2,-,N/A,,Overcast,140,2013-11-06 04:15:00
10:35 PM,77.0,64.8,66,29.95,10.0,SE,11.5,16.1,N/A,,Overcast,140,2013-11-06 04:35:00
10:55 PM,76.6,65.3,68,29.95,10.0,SE,11.5,16.1,N/A,,Overcast,140,2013-11-06 04:55:00
11:15 PM,76.1,65.7,70,29.95,10.0,SE,10.4,-,N/A,,Mostly Cloudy,130,2013-11-06 05:15:00
11:35 PM,76.3,65.8,70,29.95,10.0,ESE,8.1,-,N/A,,Overcast,120,2013-11-06 05:35:00
11:55 PM,76.1,66.0,71,29.95,10.0,SE,6.9,-,N/A,,Overcast,130,2013-11-06 05:55:00